Hourly Data Report for October 14, 2016

All times are specified in Local Standard Time (LST). Add 1 hour to adjust for Daylight Saving Time where and when it is observed.

FREDERICTON
NEW BRUNSWICK

45°52'08.000" N
66°32'14.000" W
20.70 m
8101505
71700
YFC

Download Data

Hourly Data (October 2016)
Hourly Data Report for October 14, 2016
Temp Definition
°C
Dew Point Temp Definition
°C
Rel Hum Definition
%
Wind Dir Definition
10's deg

Wind Spd Definition
km/h
Visibility Definition
km
Stn Press Definition
kPa
Hmdx Definition


Wind Chill Definition


Weather Definition


TIME
00:00 Legend Double Dagger 13.3 12.8 97 18 9 11.3 101.03     Rain
01:00 Legend Double Dagger 13.4 13.1 98 19 9 12.9 101.04     Rain
02:00 Legend Double Dagger 13.6 13.0 96 26 9 16.1 101.07     LegendNANA
03:00 Legend Double Dagger 10.6 8.1 84 28 17 16.1 101.23     LegendNANA
04:00 Legend Double Dagger 8.0 6.2 88 29 21 16.1 101.36     LegendNANA
05:00 Legend Double Dagger 7.4 5.2 86 29 18 16.1 101.50     LegendNANA
06:00 Legend Double Dagger 6.7 2.9 77 30 24 16.1 101.64     LegendNANA
07:00 Legend Double Dagger 6.1 2.4 77 31 17 16.1 101.76     LegendNANA
08:00 Legend Double Dagger 6.1 1.3 71 31 22 16.1 101.85     LegendNANA
09:00 Legend Double Dagger 6.5 -0.4 61 30 30 16.1 101.93     LegendNANA
10:00 Legend Double Dagger 7.4 -0.4 58 31 34 16.1 102.03     LegendNANA
11:00 Legend Double Dagger 8.8 -1.5 48 32 26 16.1 102.06     LegendNANA
12:00 Legend Double Dagger 9.2 -2.3 45 31 28 16.1 102.07     LegendNANA
13:00 Legend Double Dagger 9.8 -1.4 45 31 21 16.1 102.07     LegendNANA
14:00 Legend Double Dagger 10.0 -2.5 42 34 21 16.1 102.08     LegendNANA
15:00 Legend Double Dagger 10.3 -2.4 41 33 28 16.1 102.12     LegendNANA
16:00 Legend Double Dagger 9.7 -2.7 42 32 28 16.1 102.17     LegendNANA
17:00 Legend Double Dagger 8.7 -2.1 47 33 21 16.1 102.23     LegendNANA
18:00 Legend Double Dagger 7.0 -2.3 51 31 8 16.1 102.30     LegendNANA
19:00 Legend Double Dagger 5.6 -1.9 58 33 9 16.1 102.38     LegendNANA
20:00 Legend Double Dagger 4.2 -2.2 63 31 9 16.1 102.44     LegendNANA
21:00 Legend Double Dagger 2.7 -1.9 72 LegendMM 4 16.1 102.47     LegendNANA
22:00 Legend Double Dagger 0.2 -1.8 86 31 5 16.1 102.54     LegendNANA
23:00 Legend Double Dagger 0.7 -2.1 81 LegendMM 4 16.1 102.60     LegendNANA

Notes on Data Quality.

Legend

  • E = Estimated
  • M = Missing
  • NA = Not Available
  • ‡ = Partner data that is not subject to review by the National Climate Archives
Date modified: